FIN3382 EVRA-EFHK

Flight info

Callsign FIN3382
Flight time 0h 42m
Altitude 35000
Route SOKVA DCT KEMET Q11 INTOR
Aircraft A20N/M-SDE2E3FGHIRWXY/LB1

Departure

Time 2026-05-05 11:56
Airport Riga International Airport (EVRA)

Arrival

Time 2026-05-05 12:38
Airport Helsinki Vantaa Airport (EFHK)
Time Latitude Longitude Altitude Speed Heading
2026-05-05 11:55 56.81515 24.05509 4102 ft 317 kts 126°
2026-05-05 11:56 56.80384 24.08995 3991 ft 314 kts 114°
2026-05-05 11:56 56.79899 24.12798 4434 ft 305 kts 98°
2026-05-05 11:56 56.79671 24.16603 5577 ft 298 kts 97°
2026-05-05 11:56 56.79473 24.20354 6733 ft 298 kts 97°
2026-05-05 11:57 56.79273 24.24147 7659 ft 303 kts 97°
2026-05-05 11:57 56.79114 24.28003 8567 ft 310 kts 91°
2026-05-05 11:57 56.79593 24.31864 9452 ft 317 kts 61°
2026-05-05 11:57 56.81028 24.34856 10242 ft 317 kts 30°
2026-05-05 11:58 56.83078 24.36406 10678 ft 328 kts
2026-05-05 11:58 56.85383 24.37230 11056 ft 348 kts
2026-05-05 11:58 56.87831 24.38041 11537 ft 366 kts
2026-05-05 11:58 56.90370 24.38756 12232 ft 370 kts 358°
2026-05-05 11:59 56.92951 24.38806 13060 ft 373 kts 352°
2026-05-05 11:59 56.95559 24.38625 13842 ft 377 kts 351°
2026-05-05 11:59 56.98195 24.38366 14612 ft 381 kts 350°
2026-05-05 11:59 57.00845 24.38079 15398 ft 385 kts 349°
2026-05-05 12:00 57.03492 24.37780 16193 ft 388 kts 349°
2026-05-05 12:00 57.06198 24.37467 16986 ft 392 kts 349°
2026-05-05 12:00 57.08930 24.37147 17792 ft 395 kts 349°
2026-05-05 12:00 57.11691 24.36822 18509 ft 399 kts 349°
2026-05-05 12:01 57.14471 24.36494 19189 ft 403 kts 348°
2026-05-05 12:01 57.17291 24.36159 19803 ft 408 kts 348°
2026-05-05 12:01 57.20136 24.35821 20470 ft 411 kts 348°
2026-05-05 12:01 57.23002 24.35482 21188 ft 414 kts 348°
2026-05-05 12:02 57.25894 24.35138 21837 ft 418 kts 348°
2026-05-05 12:02 57.28804 24.34791 22491 ft 421 kts 348°
2026-05-05 12:02 57.31741 24.34440 23145 ft 425 kts 347°
2026-05-05 12:02 57.34701 24.34086 23705 ft 428 kts 348°
2026-05-05 12:03 57.37717 24.33974 24208 ft 438 kts 353°
2026-05-05 12:03 57.40765 24.34226 24686 ft 444 kts 354°
2026-05-05 12:03 57.43848 24.34208 25171 ft 443 kts 349°
2026-05-05 12:03 57.46950 24.33993 25457 ft 450 kts 349°
2026-05-05 12:04 57.50112 24.33724 25691 ft 459 kts 349°
2026-05-05 12:04 57.53334 24.33431 25955 ft 468 kts 348°
2026-05-05 12:04 57.56620 24.33126 26177 ft 476 kts 348°
2026-05-05 12:04 57.59955 24.32811 26394 ft 483 kts 348°
2026-05-05 12:05 57.63299 24.32502 27120 ft 478 kts 348°
2026-05-05 12:05 57.66589 24.32205 28055 ft 470 kts 348°
2026-05-05 12:05 57.69841 24.31902 28787 ft 466 kts 348°
2026-05-05 12:05 57.73075 24.31591 29404 ft 465 kts 348°
2026-05-05 12:06 57.76303 24.31279 29977 ft 464 kts 348°
2026-05-05 12:06 57.79527 24.30966 30468 ft 463 kts 348°
2026-05-05 12:06 57.82746 24.30655 31000 ft 461 kts 348°
2026-05-05 12:06 57.85925 24.30349 31596 ft 458 kts 349°
2026-05-05 12:07 57.89123 24.30215 32121 ft 461 kts 354°
2026-05-05 12:07 57.92339 24.30741 32584 ft 466 kts 360°
2026-05-05 12:07 57.95548 24.31624 33036 ft 467 kts
2026-05-05 12:07 57.98753 24.32692 33493 ft 467 kts
2026-05-05 12:08 58.01941 24.33838 33930 ft 466 kts
2026-05-05 12:08 58.05120 24.35004 34279 ft 466 kts
2026-05-05 12:08 58.08304 24.36161 34600 ft 465 kts
2026-05-05 12:08 58.11490 24.37300 34842 ft 468 kts
2026-05-05 12:09 58.17897 24.39545 34838 ft 468 kts
2026-05-05 12:09 58.24304 24.41772 34829 ft 468 kts
2026-05-05 12:10 58.30708 24.44001 34822 ft 468 kts
2026-05-05 12:10 58.37114 24.46241 34824 ft 468 kts
2026-05-05 12:11 58.43528 24.48494 34836 ft 469 kts
2026-05-05 12:11 58.49957 24.50759 34829 ft 470 kts
2026-05-05 12:12 58.56384 24.53035 34823 ft 470 kts
2026-05-05 12:12 58.62824 24.55324 34814 ft 470 kts
2026-05-05 12:13 58.69229 24.57608 34827 ft 473 kts
2026-05-05 12:13 58.75808 24.59946 34796 ft 489 kts
2026-05-05 12:14 58.82532 24.62355 34790 ft 492 kts
2026-05-05 12:14 58.89260 24.64791 34783 ft 492 kts
2026-05-05 12:15 58.95992 24.67233 34785 ft 492 kts
2026-05-05 12:15 59.02723 24.69680 34779 ft 492 kts
2026-05-05 12:16 59.09463 24.72137 34789 ft 493 kts
2026-05-05 12:16 59.16194 24.74603 34721 ft 490 kts
2026-05-05 12:17 59.19537 24.75836 34145 ft 489 kts
2026-05-05 12:17 59.22894 24.77070 33280 ft 493 kts
2026-05-05 12:17 59.26216 24.78298 32721 ft 483 kts
2026-05-05 12:17 59.29466 24.79515 32234 ft 469 kts
2026-05-05 12:18 59.32639 24.80707 31544 ft 461 kts
2026-05-05 12:18 59.35732 24.81857 30673 ft 460 kts
2026-05-05 12:18 59.38886 24.83025 29937 ft 462 kts
2026-05-05 12:18 59.41955 24.84796 29116 ft 468 kts 13°
2026-05-05 12:19 59.44968 24.87028 28435 ft 464 kts 14°
2026-05-05 12:19 59.47953 24.89388 27744 ft 460 kts 15°
2026-05-05 12:19 59.50893 24.91805 27037 ft 456 kts 16°
2026-05-05 12:19 59.53800 24.94243 26403 ft 452 kts 15°
2026-05-05 12:20 59.56686 24.96676 25641 ft 450 kts 15°
2026-05-05 12:20 59.59562 24.99096 24982 ft 447 kts 15°
2026-05-05 12:20 59.62409 25.01490 24368 ft 442 kts 15°
2026-05-05 12:20 59.65219 25.03852 23758 ft 438 kts 15°
2026-05-05 12:21 59.68011 25.06199 23102 ft 434 kts 15°
2026-05-05 12:21 59.70779 25.08528 22385 ft 430 kts 15°
2026-05-05 12:21 59.73524 25.10840 21689 ft 426 kts 15°
2026-05-05 12:21 59.76239 25.13132 21014 ft 422 kts 15°
2026-05-05 12:22 59.78923 25.15400 20354 ft 418 kts 15°
2026-05-05 12:22 59.81585 25.17655 19738 ft 414 kts 15°
2026-05-05 12:22 59.84222 25.19891 19070 ft 411 kts 15°
2026-05-05 12:22 59.86839 25.22115 18444 ft 407 kts 15°
2026-05-05 12:23 59.89437 25.24231 17792 ft 398 kts
2026-05-05 12:23 59.92047 25.24986 17083 ft 375 kts 351°
2026-05-05 12:23 59.94620 25.24757 16381 ft 367 kts 346°
2026-05-05 12:23 59.97154 25.24358 15769 ft 362 kts 345°
2026-05-05 12:24 59.99652 25.23955 15117 ft 359 kts 346°
2026-05-05 12:24 60.02128 25.23571 14467 ft 355 kts 346°
2026-05-05 12:24 60.04579 25.23203 13833 ft 352 kts 346°
2026-05-05 12:24 60.07008 25.22845 13151 ft 349 kts 346°
2026-05-05 12:25 60.08637 25.22608 12682 ft 346 kts 346°
2026-05-05 12:25 60.11029 25.22263 12032 ft 342 kts 346°
2026-05-05 12:25 60.13391 25.21924 11372 ft 339 kts 346°
2026-05-05 12:25 60.15732 25.21588 10892 ft 336 kts 346°
2026-05-05 12:26 60.18056 25.21251 10740 ft 335 kts 346°
2026-05-05 12:26 60.20386 25.20913 10725 ft 335 kts 346°
2026-05-05 12:26 60.22707 25.20579 10724 ft 334 kts 346°
2026-05-05 12:26 60.25030 25.20243 10720 ft 334 kts 346°
2026-05-05 12:27 60.27343 25.19911 10484 ft 332 kts 346°
2026-05-05 12:27 60.29634 25.19660 10141 ft 329 kts 352°
2026-05-05 12:27 60.31860 25.20717 9812 ft 335 kts 20°
2026-05-05 12:27 60.33697 25.23627 9265 ft 337 kts 42°
2026-05-05 12:28 60.35248 25.27127 8712 ft 331 kts 46°
2026-05-05 12:28 60.36727 25.30607 8201 ft 323 kts 45°
2026-05-05 12:28 60.38194 25.33950 7667 ft 313 kts 40°
2026-05-05 12:28 60.39985 25.36082 7263 ft 287 kts
2026-05-05 12:29 60.41810 25.35966 7062 ft 252 kts 333°
2026-05-05 12:29 60.43121 25.34029 6871 ft 223 kts 301°
2026-05-05 12:29 60.43623 25.31267 6670 ft 203 kts 269°
2026-05-05 12:29 60.43242 25.28627 6434 ft 198 kts 237°
2026-05-05 12:30 60.42134 25.26970 6038 ft 206 kts 202°
2026-05-05 12:30 60.40677 25.26966 5625 ft 219 kts 167°
2026-05-05 12:30 60.39409 25.28697 5220 ft 228 kts 131°
2026-05-05 12:30 60.38789 25.31634 4839 ft 231 kts 96°
2026-05-05 12:31 60.39047 25.34777 4478 ft 226 kts 59°
2026-05-05 12:31 60.40069 25.37027 4146 ft 215 kts 24°
2026-05-05 12:31 60.41462 25.37717 3705 ft 204 kts 351°
2026-05-05 12:31 60.42820 25.37161 3378 ft 197 kts 336°
2026-05-05 12:32 60.44016 25.35943 3054 ft 191 kts 316°
2026-05-05 12:32 60.44797 25.33879 2733 ft 183 kts 289°
2026-05-05 12:32 60.44909 25.31362 2399 ft 182 kts 260°
2026-05-05 12:32 60.44460 25.28953 2076 ft 185 kts 244°
2026-05-05 12:33 60.43819 25.26701 1948 ft 180 kts 242°
2026-05-05 12:33 60.43187 25.24624 2061 ft 166 kts 242°
2026-05-05 12:33 60.42585 25.22630 2003 ft 165 kts 241°
2026-05-05 12:33 60.42013 25.20723 2002 ft 152 kts 242°
2026-05-05 12:34 60.41469 25.18905 2016 ft 150 kts 243°
2026-05-05 12:34 60.40912 25.17017 2022 ft 156 kts 243°
2026-05-05 12:34 60.40377 25.15223 1990 ft 141 kts 242°
2026-05-05 12:34 60.39916 25.13680 2009 ft 120 kts 242°
2026-05-05 12:35 60.39494 25.12286 2012 ft 115 kts 240°
2026-05-05 12:35 60.38986 25.11012 1960 ft 117 kts 233°
2026-05-05 12:35 60.38438 25.09787 1800 ft 118 kts 233°
2026-05-05 12:35 60.37890 25.08570 1608 ft 116 kts 233°
2026-05-05 12:36 60.37343 25.07359 1464 ft 117 kts 233°
2026-05-05 12:36 60.36796 25.06150 1316 ft 117 kts 231°
2026-05-05 12:36 60.36247 25.04936 1141 ft 117 kts 232°
2026-05-05 12:36 60.35715 25.03757 984 ft 117 kts 231°
2026-05-05 12:37 60.35142 25.02523 816 ft 121 kts 233°
2026-05-05 12:37 60.34579 25.01306 681 ft 117 kts 233°
2026-05-05 12:37 60.34054 25.00098 511 ft 116 kts 233°
2026-05-05 12:37 60.33512 24.98903 346 ft 116 kts 233°
2026-05-05 12:38 60.32970 24.97709 213 ft 114 kts 235°
2026-05-05 12:38 60.32490 24.96605 178 ft 91 kts 228°
2026-05-05 12:38 60.32123 24.95812 179 ft 74 kts 230°
2026-05-05 12:38 60.31880 24.95351 177 ft 32 kts 212°
2026-05-05 12:39 60.31706 24.95207 175 ft 5 kts 199°
2026-05-05 12:39 60.31684 24.95192 174 ft 4 kts 194°
2026-05-05 12:39 60.31666 24.95192 174 ft 0 kts 171°